EW2817 Weather Reports


time (UTC)temp
C
wind
direction
speed
KPH
gust
KPH
rain 1hr
cm
rain 24hr
cm
rain mn
cm
humidity
%
barometer
mb
20260505101030 13 0 0.0 0.0 0.00 0.00 0.00 82 992.3
20260505095517 13 0 0.0 0.0 0.00 0.00 0.00 82 992.1
20260505094017 13 0 0.0 0.0 0.00 0.00 0.00 81 992.0
20260505092515 13 0 0.0 0.0 0.00 0.00 0.00 80 991.9
20260505091015 13 0 0.0 0.0 0.00 0.00 0.00 80 991.8
20260505085512 14 0 0.0 0.0 0.00 0.00 0.00 79 991.8
20260505084012 14 0 0.0 0.0 0.00 0.00 0.00 79 991.7
20260505081009 14 0 0.0 0.0 0.00 0.00 0.00 77 991.6
20260505075509 15 0 0.0 0.0 0.00 0.00 0.00 76 991.5
20260505074007 15 0 0.0 0.0 0.00 0.00 0.00 75 991.5
20260505072506 15 0 0.0 0.0 0.00 0.00 0.00 74 991.5
20260505071004 15 0 0.0 0.0 0.00 0.00 0.00 73 991.3
20260505065505 16 0 0.0 0.0 0.00 0.00 0.00 72 991.3
20260505062505 16 0 0.0 0.0 0.00 0.00 0.00 70 991.2
20260505061002 16 0 0.0 0.0 0.00 0.00 0.00 70 991.2
20260505055503 16 0 0.0 0.0 0.00 0.00 0.00 69 991.3
20260505054002 16 0 0.0 0.0 0.00 0.00 0.00 69 991.2
20260505051001 17 0 0.0 0.0 0.00 0.00 0.00 67 991.4
20260505040956 17 0 0.0 0.0 0.00 0.00 0.00 61 991.3
20260505035454 18 0 0.0 0.0 0.00 0.00 0.00 60 991.3
20260505033955 18 0 0.0 0.0 0.00 0.00 0.00 58 991.4
20260505032454 18 0 0.0 0.0 0.00 0.00 0.00 55 991.4
20260505030954 18 0 0.0 0.0 0.00 0.00 0.00 53 991.4
20260505025454 18 0 0.0 0.0 0.00 0.00 0.00 52 991.3
20260505023952 18 0 0.0 0.0 0.00 0.00 0.00 51 991.3
20260505022451 19 0 0.0 0.0 0.00 0.00 0.00 51 991.2
20260505020949 19 0 0.0 0.0 0.00 0.00 0.00 51 991.0
20260505013945 19 0 0.0 0.0 0.00 0.00 0.00 49 990.8
20260505012445 20 0 0.0 0.0 0.00 0.00 0.00 49 990.6
20260505010945 20 0 0.0 0.0 0.00 0.00 0.00 51 990.4
20260505005445 21 0 0.0 0.0 0.00 0.00 0.00 48 990.3
20260505003946 21 0 0.0 0.0 0.00 0.00 0.00 47 990.1
20260505002439 22 0 0.0 0.0 0.00 0.00 0.00 46 989.9
20260504235439 23 0 0.0 0.0 0.00 0.00 0.00 44 989.7
20260504232431 23 0 0.0 0.0 0.00 0.00 0.00 40 989.6
20260504225427 24 0 0.0 0.0 0.00 0.00 0.00 37 989.5
20260504223924 24 0 0.0 0.0 0.00 0.00 0.00 37 989.6
20260504222425 25 0 0.0 0.0 0.00 0.00 0.00 36 989.6
20260504220924 25 0 0.0 0.0 0.00 0.00 0.00 36 989.6
20260504215425 25 0 0.0 0.0 0.00 0.00 0.00 37 989.6
20260504213922 25 0 0.0 0.0 0.00 0.00 0.00 36 989.6
20260504212420 25 0 0.0 0.0 0.00 0.00 0.00 36 989.6
20260504210919 25 0 0.0 0.0 0.00 0.00 0.00 37 989.6
20260504205419 25 0 0.0 0.0 0.00 0.00 0.00 35 989.7
20260504203918 25 0 0.0 0.0 0.00 0.00 0.00 36 989.8
20260504202417 25 0 0.0 0.0 0.00 0.00 0.00 35 989.9
20260504200912 25 0 0.0 0.0 0.00 0.00 0.00 34 990.1
20260504195410 25 0 0.0 0.0 0.00 0.00 0.00 35 990.1
20260504192409 25 0 0.0 0.0 0.00 0.00 0.00 32 990.5
20260504185406 26 0 0.0 0.0 0.00 0.00 0.00 32 990.9
20260504183905 26 0 0.0 0.0 0.00 0.00 0.00 32 990.9
20260504182402 26 0 0.0 0.0 0.00 0.00 0.00 33 991.2
20260504180902 26 0 0.0 0.0 0.00 0.00 0.00 32 991.3
20260504175402 26 0 0.0 0.0 0.00 0.00 0.00 32 991.3
20260504173904 25 0 0.0 0.0 0.00 0.00 0.00 34 991.5
20260504172401 26 0 0.0 0.0 0.00 0.00 0.00 34 991.5
20260504150848 21 0 0.0 0.0 0.00 0.00 0.00 47 993.1
20260504140844 16 0 0.0 0.0 0.00 0.00 0.00 71 993.2